Torna al catalogo

STARLINK-11418

AttivoComunicazioniVLEO
NORAD 63058·PAYLOAD·🇺🇸 United States

Lanciato Feb 21, 2025 da Cape Canaveral Space Force Station

Loading…

Prossimi Passaggi (prossime 24 ore)

TLE

AggiornatoSource: CelesTrak SupGP

Epoca: Sep 15, 2026, 02:11 UTC

1 63058C 25035G   26258.09145833  .00056426  00000+0  43837-3 0  2581
2 63058  43.0001 314.0693 0001652 247.2039 147.8064 15.70804346    18

Traccia STARLINK-11418 in tempo reale con AllMySat

Download on the App Store